This is the latest recevied weather packets stored in our database for station/object W5MAI. If no packets are shown the sender has not sent any weather packets the latest 10 day(s).
| Time | Temp. | Humidity | Pressure | Rain* | Wind** | Luminosity | Snow |
|---|---|---|---|---|---|---|---|
| 1777468438 | 23.89° C | 93% | 1014 hPa | 0 mm | - | 25 W/m² | - |
| 1777467860 | 23.89° C | 93% | 1014.1 hPa | 0 mm | - | 12 W/m² | - |
| 1777466608 | 23.89° C | 93% | 1013.3 hPa | 0 mm | - | 9 W/m² | - |
| 1777466025 | 23.89° C | 93% | 1013.2 hPa | 0 mm | - | 7 W/m² | - |
| 1777465457 | 23.89° C | 93% | 1013 hPa | 0 mm | - | 0 W/m² | - |
| 1777464819 | 23.89° C | 93% | 1012.7 hPa | 0 mm | - | 5 W/m² | - |
| 1777464238 | 23.89° C | 93% | 1012.8 hPa | 0 mm | - | 0 W/m² | - |
| 1777463604 | 23.89° C | 93% | 1012.6 hPa | 0 mm | - | 0 W/m² | - |
| 1777463044 | 23.89° C | 92% | 1012.5 hPa | 0 mm | - | 0 W/m² | - |
| 1777462453 | 23.89° C | 92% | 1012.5 hPa | 0 mm | - | 0 W/m² | - |
| 1777461829 | 23.89° C | 92% | 1012.5 hPa | 0 mm | - | 0 W/m² | - |
| 1777461262 | 23.89° C | 92% | 1012.4 hPa | 0 mm | - | 0 W/m² | - |
| 1777460624 | 24.44° C | 92% | 1012.4 hPa | 0 mm | - | 0 W/m² | - |
| 1777460059 | 24.44° C | 92% | 1012.4 hPa | 0 mm | - | 0 W/m² | - |
| 1777459423 | 24.44° C | 91% | 1012.6 hPa | 0 mm | - | 0 W/m² | - |
| 1777458859 | 24.44° C | 91% | 1012.7 hPa | 0 mm | - | 0 W/m² | - |
| 1777458233 | 24.44° C | 90% | 1012.6 hPa | 0 mm | - | 0 W/m² | - |
| 1777457659 | 24.44° C | 90% | 1012.9 hPa | 0 mm | - | 0 W/m² | - |
| 1777457011 | 24.44° C | 90% | 1012.9 hPa | 0 mm | - | 0 W/m² | - |
| 1777456416 | 24.44° C | 90% | 1012.9 hPa | 0 mm | - | 0 W/m² | - |
| 1777455845 | 24.44° C | 90% | 1012.8 hPa | 0 mm | - | 0 W/m² | - |
| 1777455258 | 24.44° C | 90% | 1012.6 hPa | 0 mm | - | 0 W/m² | - |
| 1777454015 | 24.44° C | 90% | 1012.7 hPa | 0 mm | - | 0 W/m² | - |
| 1777453454 | 24.44° C | 90% | 1012.9 hPa | 0 mm | - | 0 W/m² | - |
| 1777452811 | 24.44° C | 90% | 1012.7 hPa | 0 mm | - | 0 W/m² | - |
* Rain latest hour (hover to see other rain measurements)
** Current wind speed in m/s (hover to see current wind gust speed)